AUA421 EDDS-LOWI

Flight info

Callsign AUA421
Flight time 0h 27m
Altitude 23000
Route KUNOD2H/07 KUNOD Y326 MOMUK L607 ELMEM
Aircraft A319/M-SDE3FGHIRWY/LB1

Departure

Time 2026-05-04 16:22
Airport Stuttgart Airport (EDDS)

Arrival

Time 2026-05-04 16:50
Airport Innsbruck Airport (LOWI)
Time Latitude Longitude Altitude Speed Heading
2026-05-04 15:58 48.68927 9.19580 1290 ft 0 kts 344°
2026-05-04 16:14 48.68917 9.19585 1290 ft 4 kts 343°
2026-05-04 16:15 48.68848 9.19581 1291 ft 4 kts 59°
2026-05-04 16:16 48.68836 9.19535 1288 ft 0 kts 74°
2026-05-04 16:18 48.68837 9.19539 1288 ft 2 kts 74°
2026-05-04 16:18 48.68850 9.19608 1287 ft 10 kts 73°
2026-05-04 16:19 48.68812 9.19919 1285 ft 11 kts 141°
2026-05-04 16:19 48.68697 9.19977 1289 ft 8 kts 166°
2026-05-04 16:20 48.68684 9.19983 1287 ft 0 kts 165°
2026-05-04 16:20 48.68683 9.19983 1287 ft 1 kts 165°
2026-05-04 16:21 48.68598 9.20137 1285 ft 0 kts 75°
2026-05-04 16:22 48.68767 9.21025 1277 ft 119 kts 73°
2026-05-04 16:22 48.69687 9.25934 2864 ft 177 kts 70°
2026-05-04 16:23 48.70894 9.32293 4846 ft 230 kts 72°
2026-05-04 16:24 48.72678 9.42149 8578 ft 254 kts 87°
2026-05-04 16:25 48.71733 9.47191 10449 ft 255 kts 131°
2026-05-04 16:26 48.64793 9.51588 12752 ft 321 kts 171°
2026-05-04 16:26 48.57670 9.53927 14419 ft 365 kts 169°
2026-05-04 16:27 48.52667 9.55618 15913 ft 372 kts 169°
2026-05-04 16:28 48.44990 9.58183 18202 ft 382 kts 169°
2026-05-04 16:28 48.37091 9.60793 20175 ft 392 kts 170°
2026-05-04 16:29 48.26456 9.65632 22605 ft 407 kts 164°
2026-05-04 16:30 48.18012 9.67518 22952 ft 422 kts 181°
2026-05-04 16:31 48.12381 9.70041 22952 ft 435 kts 152°
2026-05-04 16:31 48.04499 9.76628 22948 ft 435 kts 154°
2026-05-04 16:32 47.96592 9.83268 22950 ft 437 kts 149°
2026-05-04 16:33 47.91805 9.88929 22964 ft 441 kts 141°
2026-05-04 16:33 47.87288 9.95117 22965 ft 441 kts 140°
2026-05-04 16:34 47.82717 10.01181 22963 ft 439 kts 143°
2026-05-04 16:34 47.80326 10.03994 22954 ft 438 kts 146°
2026-05-04 16:35 47.72917 10.11923 22945 ft 438 kts 147°
2026-05-04 16:35 47.65538 10.19939 22942 ft 440 kts 146°
2026-05-04 16:36 47.63911 10.21740 22946 ft 440 kts 146°
2026-05-04 16:36 47.59071 10.27104 22681 ft 420 kts 146°
2026-05-04 16:37 47.54553 10.32102 22143 ft 393 kts 146°
2026-05-04 16:37 47.52356 10.34516 21967 ft 380 kts 146°
2026-05-04 16:37 47.48218 10.39047 20826 ft 376 kts 147°
2026-05-04 16:38 47.43904 10.43724 18829 ft 389 kts 146°
2026-05-04 16:39 47.37293 10.50391 15714 ft 377 kts 153°
2026-05-04 16:39 47.32736 10.53977 13963 ft 361 kts 155°
2026-05-04 16:40 47.28774 10.57835 13025 ft 331 kts 127°
2026-05-04 16:40 47.28002 10.63967 13010 ft 291 kts 86°
2026-05-04 16:41 47.28644 10.69454 12903 ft 257 kts 83°
2026-05-04 16:41 47.29342 10.77569 11103 ft 272 kts 89°
2026-05-04 16:42 47.29725 10.85692 9821 ft 256 kts 88°
2026-05-04 16:43 47.29918 10.90727 9104 ft 236 kts 89°
2026-05-04 16:43 47.30083 10.95413 8489 ft 220 kts 89°
2026-05-04 16:43 47.30166 10.97618 8131 ft 212 kts 89°
2026-05-04 16:44 47.30405 11.05585 6766 ft 177 kts 97°
2026-05-04 16:45 47.29970 11.09170 5915 ft 179 kts 104°
2026-05-04 16:46 47.28748 11.14039 5053 ft 148 kts 114°
2026-05-04 16:46 47.27980 11.16653 4517 ft 132 kts 115°
2026-05-04 16:47 47.27296 11.19148 4019 ft 132 kts 112°
2026-05-04 16:47 47.26665 11.21689 3598 ft 134 kts 111°
2026-05-04 16:48 47.25844 11.25593 3117 ft 128 kts 107°
2026-05-04 16:48 47.25617 11.26868 3034 ft 130 kts 107°
2026-05-04 16:49 47.25524 11.29555 2595 ft 133 kts 90°
2026-05-04 16:49 47.25793 11.32267 2088 ft 132 kts 85°
2026-05-04 16:50 47.26051 11.34664 1906 ft 74 kts 80°
2026-05-04 16:50 47.26070 11.35256 1903 ft 14 kts 165°
2026-05-04 16:51 47.25925 11.35287 1907 ft 10 kts 186°
2026-05-04 16:51 47.25893 11.35196 1898 ft 11 kts 261°
2026-05-04 16:51 47.25872 11.34999 1907 ft 6 kts 256°
2026-05-04 16:52 47.25824 11.34988 1907 ft 1 kts 174°
2026-05-04 16:52 47.25816 11.34990 1907 ft 1 kts 173°